STARLINK-1020, 44725

Orbit data source: Space-Track

STARLINK-1020, 44725 is a payload satellite owned by SpaceX/Seattle (US) in LEO that was launched on Mon, 11 Nov 2019 UTC via an FALCON 9 launch vehicle from the Air Force Eastern Test Range (AFETR). Payload-class satellites include a variety of spacecraft equipped with specific instruments for various scientific and technological missions. These include communications satellites like Starlink; space stations such as the ISS; scientific satellites like the Hubble; Earth observation satellites from companies like Planet Labs, Umbra, and HawkEye 360; GPS; miniature CubeSats for education and research; and military/defense satellites.

Loading next visibility...
Identifier
44725, 2019-074N
Orbit
LEO
Country
Flag of USUS
Related business
Manufacturer
SpaceX/Seattle
Mission
Partially operational Commercial Communications
Bus & Motor
STARLINK, Unknown motor
Mass
260 kg wet, ~248 kg dry
Launch date (UTC)
2019-11-11 (7 years ago)
Launch vehicle
FALCON 9
Launch site
Air Force Eastern Test Range (AFETR)
Object type
Payload
Rocket body
Debris
Shape & HBR
Box + 1 Pan, 10.1 m
Radar Cross Section
13.562 m², Large (>1 m²)

Expand to show TLE details & history
Last TLE update: 3 days ago

TLE from 3 days ago
0 STARLINK-1020
1 44725U 19074N   26170.93090588  .00067129  00000-0  94055-3 0  9992
2 44725  53.1573  79.4464 0004212 120.9189 239.2238 15.56174341364280
Epoch: 2026-06-19T22:20Z
TLE epoch observation values (Epoch: 2026-06-19T22:20:30.268Z)
Latitude
0.00004°
Longitude
-163.8325°
Altitude
401.112 km
Speed
7.67 km/s
True Right ascension
05h 17m 47s
True Declination
0° 00' 00"
Sunlit
Object was in daylight at epoch
Visualization orbit readout
Latitude
Unknown
Longitude
Unknown
Altitude
Unknown
Speed
Unknown
Apparent Right ascension
Unknown
Apparent Declination
Unknown
Sunlit
N/A
Visualization observer readout
Local Sidereal Time
21:38:30
Azimuth
Unknown
Elevation
Unknown
Doppler factor
Unknown
Orbital elements
Apogee altitude
401.855 km
Perigee altitude
396.146 km
Semi-major axis
6,777.138 km
Eccentricity
0.00042
Inclination
53.1573°
RAAN
79.4464°
Arg. of periapsis
120.9189°
True anomaly
239.18234°
Mean anomaly
239.2238°
Eccentric anomaly
239.20307°
Mean motion
3.89022 °/min
Orbital period
92.54 mins
BSTAR
0.00094055
Loading maneuver chart data...
Computing Atmospheric mass density...

Documentation

Showing up to 5 results
|